Back to catalog

STARLINK-33930

AliveCommunicationsVLEO
NORAD 63776·PAYLOAD·🇺🇸 United States

Launched May 2, 2025 from Cape Canaveral Space Force Station

Loading…

Next Passes (next 24 hours)

TLE

FreshSource: CelesTrak SupGP

Epoch: Sep 14, 2026, 13:52 UTC

1 63776C 25091B   26257.57826389 -.00021328  00000+0 -77262-3 0  2577
2 63776  42.9998  66.0955 0001335 265.1091 204.4779 15.27584366    10

Track STARLINK-33930 in real time with AllMySat

Download on the App Store